Weather History for Rensselaer, IN

Change the Weather History Date:

Friday, February 1, 2013

  Actual Average (KVPZ) Record (KVPZ)
Temperature  
Mean Temperature 13 °F 24 °F  
Max Temperature 21 °F 32 °F 52 °F (2006)
Min Temperature 5 °F 17 °F 2 °F (2013)
Degree Days  
Heating Degree Days 52 41  
Month to date heating degree days 41  
Since 1 July heating degree days 3726  
Cooling Degree Days 0 0  
Month to date cooling degree days 0  
Year to date cooling degree days 0  
Moisture  
Dew Point 6 °F    
Average Humidity 73    
Maximum Humidity 85    
Minimum Humidity 58    
Precipitation  
Precipitation 0.00 in 0.04 in 0.36 in (2014)
Month to date precipitation 0.04  
Year to date precipitation 1.79  
Sea Level Pressure  
Sea Level Pressure 30.29 in    
Wind  
Wind Speed 15 mph (WSW)    
Max Wind Speed 21 mph    
Max Gust Speed 29 mph    
Visibility 10 miles    
Events      
T = Trace of Precipitation, MM = Missing Value Source: NWS Daily Summary

Daily Weather History Graph

Daily Weather History Graph

Search for Another Location

Airport:

Trip Planner

Search our weather history database for the weather conditions in past years. The results will help you decide how hot, cold, wet, or windy it might be!

Date:

Astronomy

Feb. 01, 2013 Rise Set
Actual Time 6:58 AM CST 5:06 PM CST
Civil Twilight 6:29 AM CST 5:35 PM CST
Nautical Twilight 5:57 AM CST 6:08 PM CST
Astronomical Twilight 5:24 AM CST 6:40 PM CST
Moon 11:16 PM CST (2/1) 9:28 AM CST (2/1)
Length of Visible Light 11h 05m
Length of Day
10h 07m
Waning Gibbous, 70% of the Moon is Illuminated
Feb 1
Waning Gibbous
Feb 3
Last Quarter
Feb 10
New
Feb 17
First Quarter
Feb 25
Full

Hourly Weather History & Observations

Time (CST) Temp. Windchill Dew Point Humidity Pressure Visibility Wind Dir Wind Speed Gust Speed Precip Events Conditions
12:15 AM 8.6 °F -11.0 °F 1.4 °F 73% 30.17 in 7.0 mi West 20.7 mph 25.3 mph N/A   Mostly Cloudy
12:35 AM 6.8 °F -12.4 °F 1.4 °F 79% 30.18 in 10.0 mi West 18.4 mph 25.3 mph N/A   Mostly Cloudy
12:55 AM 6.8 °F -10.7 °F 1.4 °F 79% 30.19 in 10.0 mi West 15.0 mph 23.0 mph N/A   Scattered Clouds
1:15 AM 6.8 °F -10.7 °F 1.4 °F 79% 30.19 in 10.0 mi West 15.0 mph 25.3 mph N/A   Scattered Clouds
1:35 AM 6.8 °F -12.4 °F 1.4 °F 79% 30.21 in 10.0 mi West 18.4 mph 24.2 mph N/A   Scattered Clouds
1:55 AM 6.8 °F -12.4 °F 1.4 °F 79% 30.22 in 10.0 mi West 18.4 mph 28.8 mph N/A   Scattered Clouds
2:15 AM 6.8 °F -11.8 °F 1.4 °F 79% 30.23 in 7.0 mi West 17.3 mph 23.0 mph N/A   Scattered Clouds
2:35 AM 6.8 °F -11.3 °F 1.4 °F 79% 30.24 in 7.0 mi West 16.1 mph 26.5 mph N/A   Mostly Cloudy
3:15 AM 5.0 °F -14.2 °F 1.4 °F 85% 30.26 in 10.0 mi West 17.3 mph 25.3 mph N/A   Mostly Cloudy
3:35 AM 5.0 °F -14.7 °F 1.4 °F 85% 30.26 in 5.0 mi West 18.4 mph - N/A   Haze
4:15 AM 5.0 °F -12.3 °F -0.4 °F 78% 30.27 in 10.0 mi West 13.8 mph 20.7 mph N/A   Scattered Clouds
4:35 AM 5.0 °F -14.2 °F -0.4 °F 78% 30.28 in 10.0 mi West 17.3 mph 24.2 mph N/A   Clear
5:15 AM 5.0 °F -13.6 °F -0.4 °F 78% 30.29 in 10.0 mi West 16.1 mph 19.6 mph N/A   Mostly Cloudy
5:35 AM 5.0 °F -11.6 °F -0.4 °F 78% 30.29 in 10.0 mi West 12.7 mph 19.6 mph N/A   Mostly Cloudy
5:55 AM 5.0 °F -12.3 °F -0.4 °F 78% 30.29 in 10.0 mi West 13.8 mph - N/A   Mostly Cloudy
6:15 AM 5.0 °F -11.6 °F -0.4 °F 78% 30.30 in 10.0 mi West 12.7 mph - N/A   Scattered Clouds
6:35 AM 5.0 °F -10.0 °F -0.4 °F 78% 30.31 in 10.0 mi West 10.4 mph - N/A   Scattered Clouds
6:55 AM 5.0 °F -10.0 °F -0.4 °F 78% 30.33 in 10.0 mi West 10.4 mph - N/A   Mostly Cloudy
7:15 AM 5.0 °F -11.6 °F -0.4 °F 78% 30.33 in 7.0 mi WSW 12.7 mph - N/A   Overcast
7:35 AM 5.0 °F -10.0 °F -0.4 °F 78% 30.34 in 7.0 mi West 10.4 mph - N/A   Overcast
8:15 AM 5.0 °F -11.6 °F -0.4 °F 78% 30.36 in 10.0 mi West 12.7 mph - N/A   Overcast
8:35 AM 6.8 °F -9.3 °F 1.4 °F 79% 30.36 in 7.0 mi West 12.7 mph 20.7 mph N/A   Mostly Cloudy
8:55 AM 5.0 °F -12.3 °F 1.4 °F 85% 30.36 in 5.0 mi WSW 13.8 mph - N/A   Haze
9:15 AM 8.6 °F -8.9 °F 1.4 °F 73% 30.37 in 10.0 mi West 16.1 mph 20.7 mph N/A   Scattered Clouds
9:35 AM 8.6 °F -7.7 °F 1.4 °F 73% 30.37 in 10.0 mi WSW 13.8 mph 17.3 mph N/A   Scattered Clouds
9:55 AM 8.6 °F -8.3 °F 3.2 °F 79% 30.38 in 7.0 mi WSW 15.0 mph - N/A   Mostly Cloudy
10:15 AM 8.6 °F -8.3 °F 1.4 °F 73% 30.38 in 10.0 mi WSW 15.0 mph 19.6 mph N/A   Scattered Clouds
10:35 AM 8.6 °F -8.3 °F 3.2 °F 79% 30.38 in 10.0 mi West 15.0 mph 21.9 mph N/A   Scattered Clouds
10:55 AM 10.4 °F -6.0 °F 3.2 °F 73% 30.38 in 10.0 mi West 15.0 mph 21.9 mph N/A   Scattered Clouds
11:15 AM 12.2 °F -3.1 °F 5.0 °F 73% 30.38 in 10.0 mi WSW 13.8 mph 21.9 mph N/A   Scattered Clouds
11:35 AM 12.2 °F -3.7 °F 5.0 °F 73% 30.37 in 10.0 mi WSW 15.0 mph 21.9 mph N/A   Scattered Clouds
11:55 AM 14.0 °F -2.5 °F 5.0 °F 67% 30.36 in 10.0 mi WSW 17.3 mph 24.2 mph N/A   Scattered Clouds
12:15 PM 14.0 °F -0.8 °F 6.8 °F 73% 30.35 in 10.0 mi WSW 13.8 mph 17.3 mph N/A   Scattered Clouds
12:35 PM 14.0 °F -2.5 °F 5.0 °F 67% 30.35 in 10.0 mi WSW 17.3 mph - N/A   Scattered Clouds
12:55 PM 14.0 °F -2.0 °F 5.0 °F 67% 30.34 in 10.0 mi West 16.1 mph 20.7 mph N/A   Scattered Clouds
1:15 PM 15.8 °F 0.9 °F 5.0 °F 62% 30.34 in 10.0 mi West 15.0 mph 18.4 mph N/A   Scattered Clouds
1:35 PM 17.6 °F 2.7 °F 5.0 °F 58% 30.34 in 10.0 mi SW 16.1 mph - N/A   Scattered Clouds
1:55 PM 17.6 °F 3.7 °F 8.6 °F 68% 30.33 in 10.0 mi WSW 13.8 mph 23.0 mph N/A   Scattered Clouds
2:15 PM 17.6 °F 3.7 °F 5.0 °F 58% 30.32 in 10.0 mi West 13.8 mph 21.9 mph N/A   Scattered Clouds
2:35 PM 17.6 °F 5.0 °F 6.8 °F 63% 30.31 in 10.0 mi WSW 11.5 mph 21.9 mph N/A   Scattered Clouds
2:55 PM 17.6 °F 3.7 °F 5.0 °F 58% 30.31 in 10.0 mi WSW 13.8 mph 19.6 mph N/A   Scattered Clouds
3:15 PM 19.4 °F 4.5 °F 6.8 °F 58% 30.30 in 10.0 mi SW 17.3 mph - N/A   Clear
3:35 PM 17.6 °F 3.7 °F 6.8 °F 63% 30.30 in 10.0 mi SW 13.8 mph - N/A   Scattered Clouds
3:55 PM 17.6 °F 3.2 °F 8.6 °F 68% 30.30 in 10.0 mi SW 15.0 mph - N/A   Scattered Clouds
4:15 PM 17.6 °F 3.7 °F 6.8 °F 63% 30.30 in 10.0 mi WSW 13.8 mph 20.7 mph N/A   Mostly Cloudy
4:35 PM 17.6 °F 2.2 °F 6.8 °F 63% 30.29 in 10.0 mi WSW 17.3 mph 20.7 mph N/A   Scattered Clouds
4:55 PM 17.6 °F 3.7 °F 8.6 °F 68% 30.29 in 10.0 mi SW 13.8 mph 19.6 mph N/A   Scattered Clouds
5:15 PM 17.6 °F 3.2 °F 8.6 °F 68% 30.29 in 10.0 mi WSW 15.0 mph 18.4 mph N/A   Scattered Clouds
5:35 PM 17.6 °F 5.7 °F 8.6 °F 68% 30.29 in 10.0 mi SW 10.4 mph - N/A   Clear
5:55 PM 17.6 °F 6.4 °F 8.6 °F 68% 30.29 in 10.0 mi SW 9.2 mph - N/A   Clear
6:15 PM 17.6 °F 7.3 °F 8.6 °F 68% 30.29 in 10.0 mi SW 8.1 mph - N/A   Clear
6:35 PM 17.6 °F 7.3 °F 10.4 °F 73% 30.29 in 10.0 mi SW 8.1 mph - N/A   Clear
6:55 PM 17.6 °F 7.3 °F 10.4 °F 73% 30.29 in 10.0 mi SW 8.1 mph - N/A   Scattered Clouds
7:15 PM 17.6 °F 7.3 °F 10.4 °F 73% 30.28 in 10.0 mi SSW 8.1 mph - N/A   Scattered Clouds
7:35 PM 17.6 °F 7.3 °F 10.4 °F 73% 30.27 in 10.0 mi SSW 8.1 mph - N/A   Clear
7:55 PM 17.6 °F 6.4 °F 10.4 °F 73% 30.27 in 10.0 mi SW 9.2 mph - N/A   Clear
8:15 PM 19.4 °F 8.6 °F 12.2 °F 74% 30.26 in 10.0 mi SSW 9.2 mph - N/A   Clear
8:35 PM 19.4 °F 9.5 °F 12.2 °F 74% 30.25 in 10.0 mi SSW 8.1 mph - N/A   Scattered Clouds
8:55 PM 19.4 °F 8.6 °F 12.2 °F 74% 30.24 in 10.0 mi SSW 9.2 mph - N/A   Mostly Cloudy
9:15 PM 19.4 °F 7.9 °F 12.2 °F 74% 30.24 in 10.0 mi SSW 10.4 mph - N/A   Overcast
9:35 PM 19.4 °F 7.2 °F 12.2 °F 74% 30.23 in 10.0 mi SSW 11.5 mph - N/A   Overcast
9:55 PM 21.2 °F 8.3 °F 12.2 °F 68% 30.22 in 10.0 mi SSW 13.8 mph 17.3 mph N/A   Overcast
10:15 PM 21.2 °F 9.5 °F 12.2 °F 68% 30.22 in 10.0 mi SSW 11.5 mph 16.1 mph N/A   Overcast
10:35 PM 21.2 °F 8.9 °F 12.2 °F 68% 30.21 in 10.0 mi SW 12.7 mph - N/A   Overcast
10:55 PM 21.2 °F 8.3 °F 12.2 °F 68% 30.21 in 10.0 mi SW 13.8 mph 17.3 mph N/A   Overcast
11:15 PM 21.2 °F 10.1 °F 12.2 °F 68% 30.21 in 10.0 mi SSW 10.4 mph - N/A   Overcast
11:35 PM 21.2 °F 9.5 °F 14.0 °F 74% 30.20 in 10.0 mi SSW 11.5 mph - N/A   Overcast
11:55 PM 21.2 °F 9.5 °F 14.0 °F 74% 30.20 in 10.0 mi SSW 11.5 mph - N/A   Overcast